Presure
155 157 161 165 169 181 168 140 166 145 151 146 139 136 144 162 166 158 152 151 155 156 167 172 128 177 176 176 175 179 183 185 182 176 151 149 145 155 134 149 152 155 161 156
147 170 174 169 144 160 156 160 151 146 161 159 153 81 151 149 147 156 161 159 149 158 159 156 151 149 151 157 159 162 165 165 166 169 173 185 186 174 124 172 170 119 129 153
191 175 158 172 160 154 155 157 159 149 153 158 162 160 154 157 153 157 128 163 169 178 180 181 172 176 180 186 188 187 187 186 184 182 182 175 180 178 178 180 179 174 158 132
218 219 217 205 207 206 199 201 191 198 196 177 173 163 140 142 126 168 174 184 187 181 182 185 188 189 188 191 194 194 201 207 204 201 200 198 187 184 177 176 176 175 165 180
190 186 175 171 172 169 167 167 164 164 164 166 167 171 70 66 170 175 175 174 136 141 146 153 160 164 172 177 179 179 179 178 179 183 189 197 199 193 197 196 193 170 188 189
166 164 173 177 176 179 174 175 175 175 177 173 172 159 138 146 151 155 155 157 142 163 144 189 191 191 194 198 203 203 204 201 199 82 173 198 131 174 175 150 193 210 210 200
151 143 161 135 135 134 143 156 159 159 162 164 171 169 168 176 188 191 186 159 162 181 185 183 182 119 189 187 127 93 172 83 199 163 142 139 214 216 204 196 196 189 176 171
173 165 169 166 173 170 170 171 171 172 171 168 163 160 162 158 167 168 165 166 115 163 169 186 112 162 173 168 116 88 187 96 179 198 203 201 207 216 221 219 215 209 193 190
158 159 173 176 176 175 188 189 164 154 182 177 139 120 156 66 180 180 178 195 198 230 230 123 187 195 230 211 105 152 159 206 211 217 209 207 203 224 225 218 209 223 217 193
161 152 166 152 150 154 181 168 202 190 176 164 202 168 160 180 199 186 164 155 162 152 167 292 259 270 197 276 249 189 231 236 236 234 218 186 162 153 227 168 89 217 225 183
166 159 156 147 150 157 187 192 164 164 163 162 170 158 92 68 77 82 223 245 212 276 299 320 325 334 338 302 329 265 308 326 272 263 240 250 245 218 178 152 213 204 199 194
152 144 146 147 154 149 150 157 160 161 211 149 156 276 72 138 286 133 281 295 298 330 342 331 326 330 347 365 363 362 479 77 480 482 473 512 274 265 258 180 198 153 173 195
163 169 148 188 129 165 153 197 199 202 231 244 158 184 265 70 276 286 293 321 328 319 304 318 333 346 333 354 454 447 438 101 155 440 83 457 483 384 393 290 278 244 173 113
150 170 160 170 182 188 169 201 211 141 141 269 265 266 291 68 289 304 296 261 303 212 321 334 322 350 432 438 263 86 335 444 420 423 415 435 490 425 396 354 273 305 182 136
160 150 163 134 192 185 140 203 207 234 250 276 242 198 275 285 282 264 314 300 305 332 325 87 424 421 154 425 151 408 416 419 406 397 390 320 427 454 379 366 381 372 379 295
167 174 143 190 182 192 202 201 215 238 236 235 289 277 265 272 278 309 299 303 322 283 133 424 412 344 396 401 394 388 398 393 407 390 378 383 126 147 361 361 347 352 383 178
154 170 196 185 181 201 207 211 231 240 231 240 280 262 335 276 314 299 301 317 364 425 422 387 332 90 330 391 389 382 374 395 404 384 363 376 362 441 458 349 170 343 369 366
165 191 188 185 201 204 210 177 234 228 236 302 256 324 260 298 300 292 313 340 453 263 412 398 383 390 268 392 388 389 391 308 397 380 359 373 365 410 449 343 323 237 350 323
182 191 182 188 163 206 213 217 233 236 245 282 254 275 282 304 305 318 304 420 421 406 404 393 133 379 368 378 389 388 406 390 387 371 356 361 377 401 400 318 302 285 320 101
192 125 180 200 202 206 212 224 246 245 255 303 269 300 309 302 296 307 434 415 425 415 413 404 388 387 365 368 382 383 387 377 389 366 352 360 335 394 341 304 286 315 318 308
190 147 196 201 207 214 213 246 243 274 301 271 280 296 304 304 325 343 434 404 333 390 409 401 398 403 388 366 379 374 375 399 399 375 234 261 351 388 367 299 303 299 294 126
178 192 200 200 207 215 226 247 244 248 270 280 291 305 296 295 301 410 350 347 371 433 438 403 405 392 379 372 378 374 370 390 405 416 359 359 144 378 360 304 286 304 280 297
196 203 197 205 210 217 244 241 262 290 266 305 299 299 299 325 295 354 344 339 337 352 439 431 417 399 388 377 387 376 368 379 393 412 204 329 356 334 322 302 279 283 296 173
209 199 206 214 208 223 239 243 292 277 267 291 297 294 293 300 372 348 338 323 333 328 342 372 433 411 398 397 389 384 378 384 395 394 356 341 338 342 273 230 277 262 211 297
206 209 217 213 225 236 240 167 288 272 296 292 299 296 306 289 352 341 322 320 332 328 337 344 358 399 436 409 398 390 379 396 406 429 364 345 318 120 288 273 281 291 294 258
209 216 216 223 234 152 257 289 259 268 298 276 292 291 297 353 347 328 314 319 328 335 340 344 351 397 393 439 409 386 392 405 407 406 357 349 367 310 279 275 288 263 278 274
Wind_Speed
53 58 61 63 66 67 70 63 72 65 66 65 71 79 85 87 84 79 81 84 85 84 84 82 65 88 88 87 88 92 92 92 85 85 79 72 70 74 61 68 70 68 63 55
47 61 60 63 56 64 65 66 68 69 73 72 72 14 86 92 80 81 83 87 88 88 85 81 82 84 86 87 87 91 92 89 89 84 86 93 88 84 65 81 80 49 56 60
44 50 56 61 62 65 67 69 75 71 74 79 80 87 92 90 87 83 67 91 93 96 96 96 93 95 98 99 100 100 101 103 101 98 93 89 92 85 85 86 83 77 69 59
30 33 38 47 51 54 61 62 69 72 73 79 88 83 100 88 59 90 94 95 96 96 97 97 97 98 100 101 102 102 105 107 107 106 103 99 95 95 89 87 86 79 73 80
34 41 48 53 55 58 63 66 71 75 77 77 90 84 22 15 90 88 92 93 91 88 88 88 93 96 100 102 102 102 101 100 101 101 103 101 99 96 99 95 94 78 85 81
42 47 49 50 54 57 61 64 69 72 72 77 82 86 101 99 94 91 93 96 83 100 80 103 107 110 113 115 115 115 116 115 113 46 98 110 73 90 93 76 90 95 93 86
47 51 51 60 61 63 68 71 74 79 79 83 84 91 103 100 96 94 95 83 88 102 101 104 109 65 112 113 74 39 99 44 117 89 82 82 117 113 101 99 95 88 83 79
42 47 53 58 61 62 65 69 73 72 78 78 87 93 106 100 95 95 95 97 63 94 99 107 63 111 110 105 67 49 111 59 102 115 121 115 115 118 114 112 105 95 89 88
47 52 54 57 62 67 62 65 76 72 80 87 79 71 107 15 103 104 106 113 113 115 112 60 114 118 124 124 61 83 88 123 124 127 118 116 111 122 121 110 100 103 93 85
50 56 60 60 65 69 69 71 72 79 83 84 83 94 105 112 106 108 93 77 88 79 74 113 117 120 99 127 133 113 132 136 135 131 122 98 76 59 118 83 37 108 104 74
54 58 63 64 70 78 74 77 89 91 96 93 99 101 38 9 11 12 72 101 103 110 109 111 112 114 114 101 123 99 98 134 143 144 135 135 132 113 86 59 106 103 96 82
63 60 67 71 78 80 83 90 94 95 94 82 69 83 15 92 91 28 101 105 107 114 110 112 113 113 115 112 109 112 63 29 56 53 63 52 140 140 133 86 93 57 75 88
64 66 68 73 69 85 88 88 89 97 104 99 77 102 98 8 97 99 102 106 106 105 105 108 112 111 111 109 65 66 66 33 44 55 23 55 70 76 102 135 127 109 75 45
67 71 72 78 83 85 91 95 104 58 79 104 101 104 100 9 101 98 98 87 102 66 111 109 107 112 71 60 44 40 48 49 53 51 51 47 44 81 77 71 88 125 80 62
76 76 75 79 86 89 88 103 111 113 109 107 101 84 106 103 103 104 102 107 108 108 105 23 69 65 31 54 36 56 53 46 47 46 50 44 42 66 79 80 75 77 77 112
76 78 79 85 89 94 106 108 114 111 110 108 109 106 112 107 104 97 107 114 109 96 32 64 62 75 62 57 56 54 53 50 43 45 44 45 28 36 84 81 78 79 73 56
80 80 86 85 90 104 112 114 117 113 113 118 111 112 91 105 98 100 109 108 97 62 65 65 73 36 49 56 55 53 50 47 41 42 42 38 40 32 65 82 46 74 71 79
86 92 89 90 104 108 116 100 120 112 119 108 117 96 109 103 102 101 105 97 57 37 60 60 62 56 46 54 53 49 45 38 40 40 39 31 35 35 42 78 73 62 72 72
91 94 91 98 90 113 119 120 123 119 118 109 117 108 107 100 102 98 100 67 62 65 61 62 35 59 58 52 48 46 38 41 40 38 36 31 30 27 50 73 69 69 71 33
96 74 94 112 114 115 119 130 128 124 118 106 113 101 101 104 105 98 64 64 59 57 55 59 58 57 56 53 48 42 39 40 41 39 37 29 25 24 82 80 73 72 67 67
95 82 111 116 125 125 126 134 127 117 110 110 108 106 102 104 104 97 70 64 67 60 60 57 55 48 47 51 49 42 42 37 38 40 29 26 25 29 73 82 77 75 71 45
90 107 119 119 127 130 135 131 135 109 112 114 106 101 105 105 100 70 72 68 62 59 56 54 52 49 48 49 50 41 41 36 37 35 37 31 28 39 63 81 67 66 64 63
109 119 114 123 128 131 134 132 124 111 114 102 103 100 103 101 100 72 68 63 62 58 53 51 52 51 46 46 48 41 39 31 31 30 28 31 48 61 73 72 65 66 62 28
119 115 123 128 126 136 135 130 106 110 114 107 104 103 103 99 67 69 66 64 63 59 56 52 49 51 46 47 43 43 37 31 29 29 39 30 58 70 70 50 71 64 39 59
121 126 131 128 136 133 132 83 105 105 101 101 97 101 103 101 70 67 65 67 63 60 58 53 50 47 46 45 40 38 35 35 27 27 39 34 68 30 79 70 77 73 66 55
129 132 129 134 133 79 123 104 113 107 99 104 101 100 98 76 67 68 71 70 69 59 57 50 46 46 41 40 32 31 31 28 20 27 37 34 39 77 72 66 64 59 62 68
Wind_Direction
250 252 255 256 258 259 262 262 266 268 268 268 268 270 271 272 271 272 272 273 273 274 275 276 280 277 278 278 278 279 278 279 276 275 278 276 276 276 273 279 279 278 282 283
257 255 256 257 263 265 267 269 269 269 272 271 270 270 271 272 272 273 275 276 277 280 280 279 276 276 277 277 278 278 279 277 277 274 275 278 277 277 274 278 277 272 261 276
259 262 264 263 265 267 268 269 271 270 274 275 273 274 274 273 277 278 274 278 278 280 281 281 280 280 280 280 279 277 276 277 278 278 276 275 277 275 275 276 277 277 275 259
273 272 271 269 269 268 270 270 270 271 272 274 275 271 275 273 273 277 278 279 281 282 281 280 280 280 278 277 276 276 277 276 276 276 275 273 272 275 274 274 274 274 273 278
269 267 262 263 265 265 267 269 270 271 272 272 273 276 287 268 276 277 277 278 281 280 280 282 283 283 281 280 280 279 279 278 278 277 276 275 274 273 274 274 274 272 276 277
259 263 268 271 268 270 269 271 272 273 274 275 275 277 278 278 277 278 278 278 276 280 277 277 277 276 276 277 278 277 278 277 277 276 276 276 272 272 273 269 272 274 275 277
268 269 273 273 273 274 275 274 274 275 275 277 278 277 275 277 279 278 275 275 275 275 275 275 275 278 275 277 278 265 278 279 279 272 273 276 276 274 273 273 273 273 270 268
275 273 278 279 282 280 279 277 275 275 276 276 278 278 277 277 279 280 283 284 280 289 286 280 282 285 282 283 268 274 277 274 275 276 276 278 277 275 274 274 273 270 270 271
278 280 282 282 281 282 288 287 283 281 283 281 283 285 284 246 285 285 286 282 281 279 278 287 279 278 272 273 262 286 284 276 272 271 271 269 271 272 272 271 273 272 272 268
279 284 286 283 286 286 287 288 296 286 283 282 283 284 285 284 286 285 289 295 294 287 280 284 279 277 266 271 268 278 274 273 273 271 270 264 269 265 265 262 250 269 269 251
285 286 286 291 291 288 299 301 287 287 288 291 287 286 284 223 325 289 291 293 293 289 287 285 282 281 280 276 275 272 276 267 264 263 265 266 265 267 265 262 260 262 261 258
287 293 291 292 289 292 293 292 292 293 311 302 303 319 272 307 300 299 295 294 293 292 293 291 290 288 287 287 284 280 285 293 282 280 273 268 259 260 261 267 250 252 253 255
287 295 297 308 299 292 292 312 313 317 318 318 306 297 308 212 305 303 301 295 294 294 294 293 292 293 291 290 297 290 287 251 265 279 295 272 244 242 248 255 256 253 255 248
294 296 298 296 306 306 294 316 320 310 305 318 317 315 312 267 309 303 301 300 300 297 297 296 294 294 299 303 291 271 285 278 275 274 276 277 281 227 234 235 241 252 250 258
293 294 302 301 312 307 300 321 320 323 320 318 316 313 313 312 310 308 308 306 305 301 300 258 297 300 262 299 272 290 286 278 269 267 270 271 271 241 220 230 231 234 231 248
295 302 298 315 306 314 322 319 323 321 319 317 317 318 315 314 314 312 310 309 305 304 270 297 297 296 300 299 293 289 288 281 267 264 265 266 282 281 215 222 230 232 220 230
295 305 317 309 305 322 322 321 323 322 321 321 320 318 315 316 313 316 311 307 307 299 299 297 297 237 296 300 296 287 284 279 268 259 263 262 266 263 235 210 255 225 214 216
300 316 314 309 319 323 320 314 323 322 323 319 322 320 317 317 317 319 311 310 296 292 296 297 297 298 291 303 298 293 286 273 268 253 258 261 265 255 243 204 210 234 207 216
309 314 308 312 314 323 321 322 323 324 325 320 320 319 319 316 317 318 314 312 304 302 295 293 292 298 298 300 297 298 292 276 265 252 254 252 259 255 212 200 209 218 210 259
313 307 308 319 321 321 322 324 324 324 324 322 321 320 318 319 320 321 319 315 302 295 290 287 294 291 294 296 294 296 293 277 263 249 248 244 249 243 192 195 209 212 208 205
312 305 318 319 322 323 322 324 325 324 325 322 322 322 322 322 323 324 320 317 314 301 292 290 289 289 287 292 290 289 289 286 268 245 257 248 250 232 200 199 195 207 210 237
309 318 319 321 320 323 323 325 325 322 326 323 324 322 322 324 325 322 321 322 319 306 294 293 285 287 287 290 286 287 287 286 275 256 238 231 265 212 195 195 198 208 207 198
316 317 319 321 320 323 322 324 325 325 323 323 323 324 322 326 326 323 324 326 325 322 305 294 284 286 282 286 280 282 281 279 271 258 253 219 196 188 171 173 188 200 203 230
316 315 320 320 321 322 323 324 322 323 323 325 325 324 324 326 325 326 326 327 327 323 321 313 293 290 289 279 279 277 276 277 268 247 218 210 193 188 176 189 188 200 226 190
316 317 318 321 320 321 321 318 323 322 324 324 324 325 328 327 326 326 327 328 326 322 319 317 319 305 281 277 274 271 273 277 270 249 211 200 184 261 184 187 193 195 189 186
314 316 318 318 318 319 320 322 321 322 325 324 327 327 327 324 326 327 327 326 323 319 314 314 317 311 304 280 269 265 272 272 246 210 205 203 196 190 190 186 179 184 183 186